2023/12/22 00:00:00,12.2,-4.6
2023/12/22 00:10:00,12.2,-4.4
2023/12/22 00:20:00,12.3,-4.4
2023/12/22 00:30:00,12.3,-4.6
2023/12/22 00:40:00,12.3,-4.6
2023/12/22 00:50:00,12.4,-4.6
2023/12/22 01:00:00,12.3,-4.5
2023/12/22 01:10:00,12.4,-4.1
2023/12/22 01:20:00,12.3,-4.1
2023/12/22 01:30:00,12.2,-4.5
2023/12/22 01:40:00,12.0,-4.0
2023/12/22 01:50:00,11.9,-4.1
2023/12/22 02:00:00,11.8,-4.2
2023/12/22 02:10:00,11.7,-4.1
2023/12/22 02:20:00,11.7,-4.1
2023/12/22 02:30:00,11.9,-4.1
2023/12/22 02:40:00,12.1,-4.0
2023/12/22 02:50:00,12.5,-4.0
2023/12/22 03:00:00,12.5,-4.1
2023/12/22 03:10:00,12.5,-4.0
2023/12/22 03:20:00,12.4,-4.1
2023/12/22 03:30:00,12.2,-4.0
2023/12/22 03:40:00,12.0,-4.2
2023/12/22 03:50:00,11.9,-4.1
2023/12/22 04:00:00,11.9,-4.1
2023/12/22 04:10:00,12.0,-4.1
2023/12/22 04:20:00,11.9,-4.1
2023/12/22 04:30:00,11.8,-4.1
2023/12/22 04:40:00,12.3,-4.3
2023/12/22 04:50:00,12.4,-4.2
2023/12/22 05:00:00,12.4,-4.2
2023/12/22 05:10:00,12.3,-4.3
2023/12/22 05:20:00,12.3,-4.4
2023/12/22 05:30:00,12.2,-4.6
2023/12/22 05:40:00,12.1,-4.5
2023/12/22 05:50:00,12.0,-4.5
2023/12/22 06:00:00,12.1,-4.5
2023/12/22 06:10:00,12.0,-4.5
2023/12/22 06:20:00,12.1,-4.5
2023/12/22 06:30:00,12.6,-4.6
2023/12/22 06:40:00,12.5,-4.5
2023/12/22 06:50:00,12.4,-4.8
2023/12/22 07:00:00,12.4,-4.6
2023/12/22 07:10:00,12.5,-4.5
2023/12/22 07:20:00,12.7,-4.6
2023/12/22 07:30:00,13.5,-4.8
2023/12/22 07:40:00,13.5,-4.5
2023/12/22 07:50:00,13.4,-4.5
2023/12/22 08:00:00,13.2,-4.7
2023/12/22 08:10:00,13.3,-4.7
2023/12/22 08:20:00,14.1,-4.3
2023/12/22 08:30:00,14.0,-4.1
2023/12/22 08:40:00,14.2,-4.2
2023/12/22 08:50:00,14.2,-4.4
2023/12/22 09:00:00,14.1,-3.7
2023/12/22 09:10:00,13.2,-3.5
2023/12/22 09:20:00, 9.9,-3.5
2023/12/22 09:30:00,10.1,-3.8
2023/12/22 09:40:00,11.1,-3.5
2023/12/22 09:50:00,12.0,-3.3
2023/12/22 10:00:00,12.4,-3.1
2023/12/22 10:10:00,12.9,-2.8
2023/12/22 10:20:00,13.7,-2.9
2023/12/22 10:30:00,13.7,-2.9
2023/12/22 10:40:00,13.7,-2.7
2023/12/22 10:50:00,13.5,-2.7
2023/12/22 11:00:00,13.3,-3.1
2023/12/22 11:10:00,13.1,-2.8
2023/12/22 11:20:00,13.1,-3.3
2023/12/22 11:30:00,12.9,-2.9
2023/12/22 11:40:00,13.0,-2.8
2023/12/22 11:50:00,13.0,-2.6
2023/12/22 12:00:00,12.9,-2.7
2023/12/22 12:10:00,12.9,-2.8
2023/12/22 12:20:00,12.8,-2.3
2023/12/22 12:30:00,12.7,-2.3
2023/12/22 12:40:00,12.8,-2.6
2023/12/22 12:50:00,13.2,-2.7
2023/12/22 13:00:00,13.2,-2.6
2023/12/22 13:10:00,13.6,-2.8
2023/12/22 13:20:00,13.8,-2.5
2023/12/22 13:30:00,13.9,-2.6
2023/12/22 13:40:00,13.9,-2.8
2023/12/22 13:50:00,13.8,-3.1
2023/12/22 14:00:00,15.9,-3.3
2023/12/22 14:10:00,16.9,-3.1
2023/12/22 14:20:00,17.4,-3.2
2023/12/22 14:30:00,17.6,-2.8
2023/12/22 14:40:00,17.8,-2.9
2023/12/22 14:50:00,17.8,-2.7
2023/12/22 15:00:00,17.6,-2.6
2023/12/22 15:10:00,17.7,-2.8
2023/12/22 15:20:00,17.5,-3.0
2023/12/22 15:30:00,17.4,-2.6
2023/12/22 15:40:00,17.2,-3.0
2023/12/22 15:50:00,17.2,-2.9
2023/12/22 16:00:00,17.1,-3.1
2023/12/22 16:10:00,17.2,-3.2
2023/12/22 16:20:00,17.2,-3.3
2023/12/22 16:30:00,17.1,-3.4
2023/12/22 16:40:00,17.1,-3.5
2023/12/22 16:50:00,17.0,-3.4
2023/12/22 17:00:00,16.8,-3.6
2023/12/22 17:10:00,16.6,-3.7
2023/12/22 17:20:00,16.4,-3.7
2023/12/22 17:30:00,16.2,-4.4
2023/12/22 17:40:00,16.1,-4.1
2023/12/22 17:50:00,16.0,-3.8
2023/12/22 18:00:00,16.0,-4.0
2023/12/22 18:10:00,16.0,-4.0
2023/12/22 18:20:00,16.0,-4.2
2023/12/22 18:30:00,16.0,-4.5
2023/12/22 18:40:00,16.0,-4.3
2023/12/22 18:50:00,16.0,-4.6
2023/12/22 19:00:00,15.9,-4.6
2023/12/22 19:10:00,15.9,-4.7
2023/12/22 19:20:00,15.8,-4.6
2023/12/22 19:30:00,15.7,-4.5
2023/12/22 19:40:00,15.6,-4.7
2023/12/22 19:50:00,15.5,-4.5
2023/12/22 20:00:00,15.4,-4.5
2023/12/22 20:10:00,15.3,-4.5
2023/12/22 20:20:00,15.2,-4.5
2023/12/22 20:30:00,15.2,-4.5
2023/12/22 20:40:00,15.1,-4.1
2023/12/22 20:50:00,15.0,-4.3
2023/12/22 21:00:00,14.9,-5.0
2023/12/22 21:10:00,14.8,-4.5
2023/12/22 21:20:00,14.8,-4.5
2023/12/22 21:30:00,14.7,-4.5
2023/12/22 21:40:00,14.6,-4.7
2023/12/22 21:50:00,14.5,-4.5
2023/12/22 22:00:00,14.4,-4.4
2023/12/22 22:10:00,14.3,-4.7
2023/12/22 22:20:00,14.2,-3.6
2023/12/22 22:30:00,14.2,-3.8
2023/12/22 22:40:00,14.1,-4.1
2023/12/22 22:50:00,14.0,-4.2
2023/12/22 23:00:00,13.9,-4.2
2023/12/22 23:10:00,13.9,-4.1
2023/12/22 23:20:00,13.8,-4.1
2023/12/22 23:30:00,13.7,-4.3
2023/12/22 23:40:00,13.7,-4.3
2023/12/22 23:50:00,13.6,-4.1
